Location: Saint-Palais-sur-Mer
(45.6429°N, 1.0859°W)
Time: 15:52:32
(UTC+01:00)

S-56A Canister/Altair - Pass Details

Date: 13 February 2026
Orbit: 633 x 2484 km, 38.9° (Epoch: 16 March)

Event Time Altitude Azimuth Distance (km) Brightness Sun altitude
Exits shadow 06:40:06 20° 263° (W) 3,350 10.1 -16.2°
Maximum altitude 06:47:44 46° 202° (SSW) 2,630 10.1 -14.8°
Drops below altitude 10° 07:01:03 10° 136° (SE) 5,081 12.5 -12.5°
Sets 07:05:24 0° 131° (SE) 6,144 13.2 -11.8°
